TimeHST,TemperatureF,Dew PointF,Humidity,Sea Level PressureIn,VisibilityMPH,Wind Direction,Wind SpeedMPH,Gust SpeedMPH,PrecipitationIn,Events,Conditions,WindDirDegrees,DateUTC
12:54 AM,75.0,66.9,76,30.01,10.0,North,12.7,-,N/A,,Mostly Cloudy,360,2013-11-05 10:54:00
1:54 AM,75.0,66.9,76,30.00,10.0,North,8.1,-,N/A,,Scattered Clouds,10,2013-11-05 11:54:00
2:54 AM,72.0,66.0,81,29.99,10.0,NNE,5.8,-,N/A,,Clear,30,2013-11-05 12:54:00
3:54 AM,73.9,68.0,82,29.99,10.0,NNE,5.8,-,N/A,,Clear,20,2013-11-05 13:54:00
4:54 AM,72.0,66.9,84,29.98,10.0,ENE,5.8,-,N/A,,Mostly Cloudy,70,2013-11-05 14:54:00
5:54 AM,73.0,70.0,90,29.99,8.0,NNE,6.9,-,N/A,,Overcast,30,2013-11-05 15:54:00
6:54 AM,73.0,70.0,90,30.00,10.0,North,9.2,-,N/A,,Partly Cloudy,360,2013-11-05 16:54:00
7:38 AM,73.4,71.6,94,30.00,10.0,NE,12.7,-,N/A,,Mostly Cloudy,40,2013-11-05 17:38:00
7:54 AM,73.9,70.0,87,30.02,10.0,NE,16.1,-,N/A,,Overcast,40,2013-11-05 17:54:00
8:25 AM,73.4,69.8,88,30.01,10.0,North,10.4,-,0.01,,Overcast,360,2013-11-05 18:25:00
8:44 AM,75.2,71.6,89,30.01,10.0,North,10.4,-,0.01,,Overcast,360,2013-11-05 18:44:00
8:54 AM,75.9,71.1,85,30.03,10.0,North,8.1,-,0.01,,Overcast,360,2013-11-05 18:54:00
9:54 AM,77.0,70.0,79,30.03,10.0,NNW,9.2,-,N/A,,Mostly Cloudy,330,2013-11-05 19:54:00
10:54 AM,80.1,71.1,74,30.02,10.0,NNE,11.5,-,0.00,,Mostly Cloudy,20,2013-11-05 20:54:00
11:54 AM,81.0,70.0,69,30.00,10.0,North,12.7,-,N/A,,Scattered Clouds,10,2013-11-05 21:54:00
12:54 PM,84.0,66.9,56,29.98,10.0,NE,15.0,19.6,N/A,,Mostly Cloudy,50,2013-11-05 22:54:00
1:54 PM,84.9,64.9,51,29.95,10.0,ENE,13.8,-,N/A,,Mostly Cloudy,60,2013-11-05 23:54:00
2:54 PM,82.9,66.9,58,29.93,10.0,NNE,21.9,-,N/A,,Scattered Clouds,30,2013-11-06 00:54:00
3:54 PM,82.9,68.0,60,29.94,10.0,North,16.1,-,N/A,,Scattered Clouds,10,2013-11-06 01:54:00
4:54 PM,81.0,70.0,69,29.95,10.0,NNE,20.7,-,N/A,,Scattered Clouds,30,2013-11-06 02:54:00
5:54 PM,77.0,66.9,71,29.96,10.0,NE,9.2,-,N/A,,Partly Cloudy,50,2013-11-06 03:54:00
6:54 PM,75.0,64.9,71,29.98,10.0,NE,8.1,-,N/A,,Partly Cloudy,50,2013-11-06 04:54:00
7:54 PM,73.9,66.0,76,30.00,10.0,ENE,5.8,-,N/A,,Clear,60,2013-11-06 05:54:00
8:54 PM,75.0,66.0,73,30.00,10.0,NNE,9.2,-,N/A,,Clear,20,2013-11-06 06:54:00
9:54 PM,75.9,68.0,76,30.01,10.0,North,10.4,-,N/A,,Clear,360,2013-11-06 07:54:00
10:54 PM,73.0,66.0,79,30.01,10.0,NNW,4.6,-,N/A,,Clear,330,2013-11-06 08:54:00
11:54 PM,73.0,66.9,81,30.01,10.0,Calm,Calm,-,N/A,,Partly Cloudy,0,2013-11-06 09:54:00